Time,TemperatureF,DewpointF,PressureIn,WindDirection,WindDirectionDegrees,WindSpeedMPH,WindSpeedGustMPH,Humidity,HourlyPrecipIn,Conditions,Clouds,dailyrainin,SoftwareType,DateUTC
2013-09-06 00:09:00,67.1,66.5,30.04,South,180,0.0,-999.0,98,-99.99,,,0.00,Acu-Link.com,2013-09-06 05:09:00,
2013-09-06 00:25:00,66.4,65.8,30.04,South,180,1.7,-999.0,98,-99.99,,,0.00,Acu-Link.com,2013-09-06 05:25:00,
2013-09-06 00:40:00,65.5,64.9,30.05,South,180,1.1,-999.0,98,-99.99,,,0.00,Acu-Link.com,2013-09-06 05:40:00,
2013-09-06 00:55:00,64.9,64.3,30.04,South,180,0.0,-999.0,98,-99.99,,,0.00,Acu-Link.com,2013-09-06 05:55:00,
2013-09-06 01:10:00,64.8,64.2,30.04,South,180,0.0,-999.0,98,-99.99,,,0.00,Acu-Link.com,2013-09-06 06:10:00,
2013-09-06 01:25:00,64.4,63.8,30.04,South,180,0.0,-999.0,98,-99.99,,,0.00,Acu-Link.com,2013-09-06 06:25:00,
2013-09-06 01:40:00,64.9,64.3,30.05,South,180,0.0,-999.0,98,-99.99,,,0.00,Acu-Link.com,2013-09-06 06:40:00,
2013-09-06 01:55:00,64.2,63.6,30.04,South,180,0.0,-999.0,98,-99.99,,,0.00,Acu-Link.com,2013-09-06 06:55:00,
2013-09-06 02:10:00,63.5,62.9,30.04,South,180,0.0,-999.0,98,-99.99,,,0.00,Acu-Link.com,2013-09-06 07:10:00,
2013-09-06 02:26:00,63.7,63.1,30.04,South,180,0.0,-999.0,98,-99.99,,,0.00,Acu-Link.com,2013-09-06 07:26:00,
2013-09-06 02:41:00,64.0,63.4,30.04,SSE,157,0.0,-999.0,98,-99.99,,,0.00,Acu-Link.com,2013-09-06 07:41:00,
2013-09-06 02:56:00,64.0,63.4,30.03,South,180,1.7,-999.0,98,-99.99,,,0.00,Acu-Link.com,2013-09-06 07:56:00,
2013-09-06 03:11:00,63.7,63.1,30.03,SSE,157,0.0,-999.0,98,-99.99,,,0.00,Acu-Link.com,2013-09-06 08:11:00,
2013-09-06 03:27:00,63.5,62.9,30.04,SSE,157,0.0,-999.0,98,-99.99,,,0.00,Acu-Link.com,2013-09-06 08:27:00,
2013-09-06 03:42:00,63.3,62.7,30.03,South,180,0.0,-999.0,98,-99.99,,,0.00,Acu-Link.com,2013-09-06 08:42:00,
2013-09-06 03:57:00,63.0,62.4,30.04,South,180,0.0,-999.0,98,-99.99,,,0.00,Acu-Link.com,2013-09-06 08:57:00,
2013-09-06 04:12:00,62.8,62.2,30.03,ENE,67,0.0,-999.0,98,-99.99,,,0.00,Acu-Link.com,2013-09-06 09:12:00,
2013-09-06 04:27:00,63.5,62.9,30.03,NE,45,2.7,-999.0,98,-99.99,,,0.00,Acu-Link.com,2013-09-06 09:27:00,
2013-09-06 04:42:00,63.5,62.9,30.04,NW,315,0.0,-999.0,98,-99.99,,,0.00,Acu-Link.com,2013-09-06 09:42:00,
2013-09-06 04:58:00,63.1,62.5,30.04,East,90,0.0,-999.0,98,-99.99,,,0.00,Acu-Link.com,2013-09-06 09:58:00,
2013-09-06 05:13:00,63.0,62.4,30.04,South,180,0.0,-999.0,98,-99.99,,,0.00,Acu-Link.com,2013-09-06 10:13:00,
2013-09-06 05:28:00,62.4,61.8,30.04,South,180,0.0,-999.0,98,-99.99,,,0.00,Acu-Link.com,2013-09-06 10:28:00,
2013-09-06 05:43:00,62.1,61.5,30.04,South,180,0.0,-999.0,98,-99.99,,,0.00,Acu-Link.com,2013-09-06 10:43:00,
2013-09-06 05:58:00,62.8,62.2,30.04,East,90,1.7,-999.0,98,-99.99,,,0.00,Acu-Link.com,2013-09-06 10:58:00,
2013-09-06 06:13:00,61.9,61.3,30.04,SSW,202,1.7,-999.0,98,-99.99,,,0.00,Acu-Link.com,2013-09-06 11:13:00,
2013-09-06 06:28:00,61.9,61.3,30.04,SSW,202,0.0,-999.0,98,-99.99,,,0.00,Acu-Link.com,2013-09-06 11:28:00,
2013-09-06 06:43:00,61.3,60.7,30.05,South,180,0.0,-999.0,98,-99.99,,,0.00,Acu-Link.com,2013-09-06 11:43:00,
2013-09-06 06:58:00,61.7,61.1,30.05,South,180,1.7,-999.0,98,-99.99,,,0.00,Acu-Link.com,2013-09-06 11:58:00,
2013-09-06 07:14:00,62.4,61.8,30.05,SSW,202,0.0,-999.0,98,-99.99,,,0.00,Acu-Link.com,2013-09-06 12:14:00,
2013-09-06 07:29:00,63.0,62.4,30.05,SSW,202,1.1,-999.0,98,-99.99,,,0.00,Acu-Link.com,2013-09-06 12:29:00,
2013-09-06 07:44:00,64.8,64.2,30.05,South,180,1.1,-999.0,98,-99.99,,,0.00,Acu-Link.com,2013-09-06 12:44:00,
2013-09-06 07:59:00,69.1,68.5,30.05,South,180,2.2,-999.0,98,-99.99,,,0.00,Acu-Link.com,2013-09-06 12:59:00,
2013-09-06 08:14:00,68.5,67.9,30.05,ESE,112,1.1,-999.0,98,-99.99,,,0.00,Acu-Link.com,2013-09-06 13:14:00,
2013-09-06 08:29:00,73.8,69.7,30.05,South,180,2.7,-999.0,87,-99.99,,,0.00,Acu-Link.com,2013-09-06 13:29:00,
2013-09-06 08:44:00,71.8,69.3,30.04,South,180,3.7,-999.0,92,-99.99,,,0.00,Acu-Link.com,2013-09-06 13:44:00,
2013-09-06 08:59:00,71.4,69.3,30.04,South,180,3.2,-999.0,93,-99.99,,,0.00,Acu-Link.com,2013-09-06 13:59:00,
2013-09-06 09:15:00,72.5,70.0,30.04,South,180,4.2,-999.0,92,-99.99,,,0.00,Acu-Link.com,2013-09-06 14:15:00,
2013-09-06 09:30:00,73.4,71.6,30.05,South,180,3.2,-999.0,94,-99.99,,,0.00,Acu-Link.com,2013-09-06 14:30:00,
2013-09-06 09:45:00,74.1,71.3,30.05,South,180,3.7,-999.0,91,-99.99,,,0.00,Acu-Link.com,2013-09-06 14:45:00,
2013-09-06 10:00:00,75.2,70.7,30.05,South,180,4.2,-999.0,86,-99.99,,,0.00,Acu-Link.com,2013-09-06 15:00:00,
2013-09-06 10:16:00,76.3,71.4,30.05,South,180,3.2,-999.0,85,-99.99,,,0.00,Acu-Link.com,2013-09-06 15:16:00,
2013-09-06 10:31:00,77.9,71.9,30.05,South,180,5.8,-999.0,82,-99.99,,,0.00,Acu-Link.com,2013-09-06 15:31:00,
2013-09-06 10:46:00,77.0,71.8,30.04,South,180,5.3,-999.0,84,-99.99,,,0.00,Acu-Link.com,2013-09-06 15:46:00,
2013-09-06 11:01:00,81.1,73.2,30.05,SSW,202,5.3,-999.0,77,-99.99,,,0.00,Acu-Link.com,2013-09-06 16:01:00,
2013-09-06 11:16:00,83.7,74.9,30.05,South,180,5.8,-999.0,75,-99.99,,,0.00,Acu-Link.com,2013-09-06 16:16:00,
2013-09-06 11:32:00,86.0,75.9,30.05,South,180,3.7,-999.0,72,-99.99,,,0.00,Acu-Link.com,2013-09-06 16:32:00,
2013-09-06 11:47:00,85.6,74.7,30.04,SSE,157,6.3,-999.0,70,-99.99,,,0.00,Acu-Link.com,2013-09-06 16:47:00,
2013-09-06 12:02:00,88.5,75.2,30.04,South,180,5.3,-999.0,65,-99.99,,,0.00,Acu-Link.com,2013-09-06 17:02:00,
2013-09-06 12:18:00,86.9,73.7,30.04,South,180,3.7,-999.0,65,-99.99,,,0.00,Acu-Link.com,2013-09-06 17:18:00,
2013-09-06 12:33:00,88.0,73.8,30.03,South,180,7.8,-999.0,63,-99.99,,,0.00,Acu-Link.com,2013-09-06 17:33:00,
2013-09-06 12:48:00,89.6,73.8,30.03,SSW,202,6.3,-999.0,60,-99.99,,,0.00,Acu-Link.com,2013-09-06 17:48:00,
2013-09-06 13:04:00,89.6,72.3,30.02,SSW,202,4.7,-999.0,57,-99.99,,,0.00,Acu-Link.com,2013-09-06 18:04:00,
2013-09-06 13:19:00,89.8,73.0,30.01,SSW,202,4.7,-999.0,58,-99.99,,,0.00,Acu-Link.com,2013-09-06 18:19:00,
2013-09-06 13:34:00,88.7,72.0,30.00,SSW,202,8.9,-999.0,58,-99.99,,,0.00,Acu-Link.com,2013-09-06 18:34:00,
2013-09-06 13:49:00,88.7,71.5,29.99,SSE,157,8.3,-999.0,57,-99.99,,,0.00,Acu-Link.com,2013-09-06 18:49:00,
2013-09-06 14:04:00,88.9,71.1,29.99,SSE,157,6.8,-999.0,56,-99.99,,,0.00,Acu-Link.com,2013-09-06 19:04:00,
2013-09-06 14:19:00,88.7,71.0,29.98,SE,135,5.3,-999.0,56,-99.99,,,0.00,Acu-Link.com,2013-09-06 19:19:00,
2013-09-06 14:34:00,91.2,72.7,29.97,SSE,157,4.2,-999.0,55,-99.99,,,0.00,Acu-Link.com,2013-09-06 19:34:00,
2013-09-06 14:49:00,88.9,71.1,29.96,SSE,157,5.8,-999.0,56,-99.99,,,0.00,Acu-Link.com,2013-09-06 19:49:00,
2013-09-06 15:04:00,89.1,70.8,29.96,SSW,202,6.3,-999.0,55,-99.99,,,0.00,Acu-Link.com,2013-09-06 20:04:00,
2013-09-06 15:20:00,90.3,69.7,29.96,SSW,202,3.7,-999.0,51,-99.99,,,0.00,Acu-Link.com,2013-09-06 20:20:00,
2013-09-06 15:35:00,91.2,70.5,29.96,SSE,157,2.7,-999.0,51,-99.99,,,0.00,Acu-Link.com,2013-09-06 20:35:00,
2013-09-06 15:50:00,88.9,69.5,29.95,SSW,202,6.3,-999.0,53,-99.99,,,0.00,Acu-Link.com,2013-09-06 20:50:00,
2013-09-06 16:05:00,90.9,70.8,29.94,SSW,202,8.3,-999.0,52,-99.99,,,0.00,Acu-Link.com,2013-09-06 21:05:00,
2013-09-06 16:21:00,88.7,69.3,29.94,SSE,157,5.3,-999.0,53,-99.99,,,0.00,Acu-Link.com,2013-09-06 21:21:00,
2013-09-06 16:36:00,88.9,70.6,29.93,SSE,157,5.3,-999.0,55,-99.99,,,0.00,Acu-Link.com,2013-09-06 21:36:00,
2013-09-06 16:51:00,88.9,69.5,29.93,SSW,202,4.7,-999.0,53,-99.99,,,0.00,Acu-Link.com,2013-09-06 21:51:00,
2013-09-06 17:06:00,86.2,69.7,29.93,South,180,6.3,-999.0,58,-99.99,,,0.00,Acu-Link.com,2013-09-06 22:06:00,
2013-09-06 17:21:00,86.9,70.3,29.93,South,180,8.3,-999.0,58,-99.99,,,0.00,Acu-Link.com,2013-09-06 22:21:00,
2013-09-06 17:37:00,87.1,70.0,29.92,South,180,5.8,-999.0,57,-99.99,,,0.00,Acu-Link.com,2013-09-06 22:37:00,
2013-09-06 17:52:00,87.4,70.3,29.92,SSW,202,4.7,-999.0,57,-99.99,,,0.00,Acu-Link.com,2013-09-06 22:52:00,
2013-09-06 18:07:00,85.5,70.5,29.92,South,180,4.7,-999.0,61,-99.99,,,0.00,Acu-Link.com,2013-09-06 23:07:00,
2013-09-06 18:22:00,84.9,70.9,29.92,South,180,2.7,-999.0,63,-99.99,,,0.00,Acu-Link.com,2013-09-06 23:22:00,
2013-09-06 18:38:00,83.3,71.2,29.91,South,180,2.2,-999.0,67,-99.99,,,0.00,Acu-Link.com,2013-09-06 23:38:00,
2013-09-06 18:53:00,82.8,73.2,29.91,SE,135,3.2,-999.0,73,-99.99,,,0.00,Acu-Link.com,2013-09-06 23:53:00,
2013-09-06 19:08:00,81.1,73.6,29.92,East,90,0.0,-999.0,78,-99.99,,,0.00,Acu-Link.com,2013-09-07 00:08:00,
2013-09-06 19:24:00,78.8,72.5,29.90,SSE,157,1.1,-999.0,81,-99.99,,,0.00,Acu-Link.com,2013-09-07 00:24:00,
2013-09-06 19:39:00,78.1,73.2,29.91,ESE,112,2.2,-999.0,85,-99.99,,,0.00,Acu-Link.com,2013-09-07 00:39:00,
2013-09-06 19:54:00,76.3,72.1,29.91,SSE,157,0.0,-999.0,87,-99.99,,,0.00,Acu-Link.com,2013-09-07 00:54:00,
2013-09-06 20:09:00,74.7,71.9,29.91,SSE,157,1.1,-999.0,91,-99.99,,,0.00,Acu-Link.com,2013-09-07 01:09:00,
2013-09-06 20:24:00,73.4,71.2,29.92,SSE,157,0.0,-999.0,93,-99.99,,,0.00,Acu-Link.com,2013-09-07 01:24:00,
2013-09-06 20:39:00,73.0,72.1,29.92,SSE,157,0.0,-999.0,97,-99.99,,,0.00,Acu-Link.com,2013-09-07 01:39:00,
2013-09-06 20:55:00,72.7,71.8,29.91,SSE,157,2.2,-999.0,97,-99.99,,,0.00,Acu-Link.com,2013-09-07 01:55:00,
2013-09-06 21:10:00,72.3,70.5,29.92,SSE,157,1.7,-999.0,94,-99.99,,,0.00,Acu-Link.com,2013-09-07 02:10:00,
2013-09-06 21:25:00,71.6,70.4,29.93,SSE,157,1.7,-999.0,96,-99.99,,,0.00,Acu-Link.com,2013-09-07 02:25:00,
2013-09-06 21:40:00,71.2,70.3,29.93,SSE,157,0.0,-999.0,97,-99.99,,,0.00,Acu-Link.com,2013-09-07 02:40:00,
2013-09-06 21:55:00,71.4,70.5,29.92,SSE,157,1.7,-999.0,97,-99.99,,,0.00,Acu-Link.com,2013-09-07 02:55:00,
2013-09-06 22:10:00,70.9,70.3,29.92,SSW,202,2.2,-999.0,98,-99.99,,,0.00,Acu-Link.com,2013-09-07 03:10:00,
2013-09-06 22:25:00,70.0,69.4,29.92,SSE,157,2.2,-999.0,98,-99.99,,,0.00,Acu-Link.com,2013-09-07 03:25:00,
2013-09-06 22:41:00,70.0,69.4,29.92,SSE,157,2.2,-999.0,98,-99.99,,,0.00,Acu-Link.com,2013-09-07 03:41:00,
2013-09-06 23:03:00,70.2,69.0,29.92,SSE,157,2.2,-999.0,96,-99.99,,,0.00,Acu-Link.com,2013-09-07 04:03:00,
2013-09-06 23:18:00,70.3,68.8,29.91,South,180,4.2,-999.0,95,-99.99,,,0.00,Acu-Link.com,2013-09-07 04:18:00,
2013-09-06 23:34:00,69.6,68.4,29.91,South,180,1.7,-999.0,96,-99.99,,,0.00,Acu-Link.com,2013-09-07 04:34:00,
2013-09-06 23:49:00,69.3,68.1,29.92,South,180,2.2,-999.0,96,-99.99,,,0.00,Acu-Link.com,2013-09-07 04:49:00,